World > North America > United States > Ohio

Sycamore Township, Ohio Regional Weather

Lat: 39.20N, Lon: 84.4W
Wx Zone: OHZ077Web Search
Sycamore Township Weather Warning NWS WEATHER ALERT FOR THE SYCAMORE TOWNSHIP, OH AREA - Issued: 427 AM EDT Fri May 7 2021 Sycamore Township Weather Warning  

Helpful Tip: You can add this page to Bookmarks by pressing the Ctrl key & d key at the same time. Mac users press command & d.

Feedback


°F Click to change Sycamore Township hourly weather to Imperial units.Click to change Sycamore Township hourly weather to Metric units. °C
Sycamore Township Weather Map
UTC Time: 5/7/2021, 12:42
Your Time:

Sycamore Township, OH Regional Weather

Expires:202105071300;;734348
ASUS41 KCLE 071212
RWRCLE
OHIO REGIONAL WEATHER ROUNDUP
NATIONAL WEATHER SERVICE WILMINGTON, OH
800 AM EDT FRI MAY 07 2021

NOTE: "FAIR" INDICATES FEW OR NO CLOUDS BELOW 12,000 FEET WITH NO
SIGNIFICANT WEATHER AND/OR OBSTRUCTIONS TO VISIBILITY.


OHZ042-051>053-060>062-070>072-077>081-071300-
  SOUTHWEST OHIO
  
CITY           SKY/WX    TMP DP  RH WIND       PRES   REMARKS
CINC-COVINGTON PTSUNNY   43  39  86 NW7       30.04R                  
CINC-LUNKEN    FAIR      45  41  86 W5        30.05R                  
HAMILTON       FAIR      44  40  85 NW8       30.05R                  
DAYTON         FAIR      43  37  79 NW12      30.03R                  
WRIGHT-PAT AFB FAIR      42  38  86 NW9       30.01R                  
DAYTON GENERAL FAIR      43  40  89 NW9       30.01R                  
WILMINGTON     CLOUDY    43  39  86 NW10      30.00R                  
$$


SKY/WX - Weather  TMP - Temperature  DP - Dew Point  RH - Relative Humidity
WIND - Wind Direction/Speed PRES - Barometric Pressure VSB - Visibility
WCI - Wind Chill Index E13G22 Wind - East Wind 13 mph/Gusts of 22 mph